EW1095 Weather Reports


time (UTC)temp
C
wind
direction
speed
KPH
gust
KPH
rain 1hr
cm
rain 24hr
cm
rain mn
cm
humidity
%
barometer
mb
20260906214537 28 0 0.0 0.0 0.00 0.10 0.00 42 1018.6
20260906214018 28 0 0.0 0.0 0.00 0.10 0.00 41 1018.7
20260906213517 28 0 0.0 0.0 0.00 0.10 0.00 40 1018.6
20260906213042 29 0 0.0 0.0 0.00 0.10 0.00 37 1018.7
20260906212518 29 0 0.0 0.0 0.00 0.10 0.00 38 1018.7
20260906212020 29 0 0.0 0.0 0.00 0.10 0.00 40 1018.8
20260906211541 29 0 0.0 0.0 0.00 0.10 0.00 38 1018.8
20260906211021 29 0 0.0 0.0 0.00 0.10 0.00 36 1018.8
20260906210520 29 0 0.0 1.6 0.00 0.10 0.00 38 1018.9
20260906210036 29 0 0.0 1.6 0.00 0.10 0.00 36 1019.1
20260906205519 29 0 0.0 0.0 0.00 0.10 0.00 37 1019.1
20260906205020 29 0 0.0 0.0 0.00 0.10 0.00 37 1019.2
20260906204556 29 0 0.0 0.0 0.00 0.10 0.00 38 1019.2
20260906204018 28 0 0.0 0.0 0.00 0.10 0.00 38 1019.2
20260906203518 28 0 0.0 14.5 0.00 0.10 0.00 39 1019.5
20260906203041 28 0 0.0 14.5 0.00 0.10 0.00 39 1019.5
20260906202516 28 132 1.6 14.5 0.00 0.10 0.00 38 1019.6
20260906202019 28 0 0.0 0.0 0.00 0.10 0.00 39 1019.6
20260906201548 29 0 0.0 0.0 0.00 0.10 0.00 39 1019.6
20260906201018 29 0 0.0 0.0 0.00 0.10 0.00 40 1019.7
20260906200520 28 0 0.0 0.0 0.00 0.10 0.00 38 1019.7
20260906200037 28 0 0.0 0.0 0.00 0.10 0.00 38 1019.7
20260906195520 28 0 0.0 0.0 0.00 0.10 0.00 38 1019.7
20260906195018 28 0 0.0 8.0 0.00 0.10 0.00 39 1019.7
20260906194539 28 0 0.0 8.0 0.00 0.10 0.00 39 1019.7
20260906194019 28 0 0.0 1.6 0.00 0.10 0.00 39 1020.0
20260906193518 28 0 0.0 1.6 0.00 0.10 0.00 41 1019.9
20260906193039 28 0 0.0 1.6 0.00 0.10 0.00 42 1020.0
20260906192521 28 0 0.0 1.6 0.00 0.10 0.00 42 1019.9
20260906192019 28 0 0.0 1.6 0.00 0.10 0.00 41 1020.0
20260906191539 28 0 0.0 0.0 0.00 0.10 0.00 41 1020.2
20260906191018 28 0 0.0 0.0 0.00 0.10 0.00 41 1020.2
20260906190520 28 0 0.0 1.6 0.00 0.10 0.00 41 1020.3
20260906190042 27 0 0.0 11.3 0.00 0.10 0.00 42 1020.4
20260906185519 27 0 0.0 11.3 0.00 0.10 0.00 43 1020.7
20260906185037 27 0 0.0 1.6 0.00 0.10 0.00 44 1020.6
20260906184537 27 0 0.0 1.6 0.00 0.10 0.00 42 1020.8
20260906184016 26 0 0.0 1.6 0.00 0.10 0.00 44 1020.8
20260906183518 26 0 0.0 9.7 0.00 0.10 0.00 46 1021.0
20260906183038 26 0 0.0 11.3 0.00 0.10 0.00 46 1021.2
20260906182519 26 0 3.2 11.3 0.00 0.10 0.00 44 1021.3
20260906182021 26 0 0.0 1.6 0.00 0.10 0.00 43 1021.5
20260906181538 26 0 0.0 1.6 0.00 0.10 0.00 47 1021.5
20260906181019 26 0 0.0 1.6 0.00 0.10 0.00 44 1021.5
20260906180520 26 0 0.0 1.6 0.00 0.10 0.00 41 1021.7
20260906180055 26 0 0.0 1.6 0.00 0.10 0.00 42 1021.7
20260906175520 26 0 0.0 1.6 0.00 0.10 0.00 45 1021.9
20260906175018 26 0 0.0 1.6 0.00 0.10 0.00 44 1021.9
20260906174539 26 0 0.0 1.6 0.00 0.10 0.00 46 1022.1
20260906174018 25 0 0.0 0.0 0.00 0.10 0.00 45 1022.1
20260906173518 25 0 0.0 0.0 0.00 0.10 0.00 48 1022.0
20260906173039 25 0 0.0 0.0 0.00 0.10 0.00 47 1022.1
20260906172519 25 0 0.0 0.0 0.00 0.10 0.00 48 1022.2
20260906172020 25 0 0.0 0.0 0.00 0.10 0.00 48 1022.3
20260906171537 25 0 0.0 0.0 0.00 0.10 0.00 49 1022.3
20260906171018 24 0 0.0 0.0 0.00 0.10 0.00 49 1022.3
20260906170518 24 0 0.0 0.0 0.00 0.10 0.00 48 1022.3
20260906170043 24 0 0.0 0.0 0.00 0.10 0.00 52 1022.3
20260906165520 23 0 0.0 1.6 0.00 0.10 0.00 52 1022.3
20260906165019 23 0 0.0 1.6 0.00 0.10 0.00 52 1022.3
20260906164536 23 0 0.0 1.6 0.00 0.10 0.00 52 1022.4
20260906164018 23 0 0.0 0.0 0.00 0.10 0.00 54 1022.4
20260906163518 23 0 0.0 0.0 0.00 0.10 0.00 58 1022.3
20260906163043 23 0 0.0 0.0 0.00 0.10 0.00 58 1022.5
20260906162517 22 0 0.0 0.0 0.00 0.10 0.00 55 1022.5
20260906162020 22 0 0.0 0.0 0.00 0.10 0.00 58 1022.6
20260906161536 22 0 0.0 0.0 0.00 0.10 0.00 61 1022.6
20260906161019 22 0 0.0 0.0 0.00 0.10 0.00 61 1022.5
20260906160520 21 0 0.0 0.0 0.00 0.10 0.00 58 1022.5
20260906160039 21 0 0.0 0.0 0.00 0.10 0.00 62 1022.7
20260906155520 21 0 0.0 0.0 0.00 0.10 0.00 63 1022.5
20260906155020 21 0 0.0 0.0 0.00 0.10 0.00 63 1022.5
20260906154537 21 0 0.0 0.0 0.00 0.10 0.00 65 1022.7
20260906154016 21 0 0.0 0.0 0.00 0.10 0.00 69 1022.7
20260906153519 20 0 0.0 0.0 0.00 0.10 0.00 69 1022.8
20260906153037 20 0 0.0 0.0 0.00 0.10 0.00 69 1022.7
20260906152521 20 0 0.0 0.0 0.00 0.10 0.00 70 1022.7
20260906152018 20 0 0.0 0.0 0.00 0.10 0.00 72 1022.7
20260906151540 20 0 0.0 0.0 0.00 0.10 0.00 71 1022.7
20260906151019 20 0 0.0 0.0 0.00 0.10 0.00 72 1022.5
20260906150520 20 0 0.0 0.0 0.00 0.10 0.00 72 1022.6
20260906150037 19 0 0.0 0.0 0.00 0.10 0.00 73 1022.5
20260906145517 19 0 0.0 0.0 0.00 0.10 0.00 74 1022.4
20260906145018 19 0 0.0 0.0 0.00 0.10 0.00 73 1022.4
20260906144538 18 0 0.0 0.0 0.00 0.10 0.00 74 1022.4
20260906144015 18 0 0.0 0.0 0.00 0.10 0.00 75 1022.4
20260906143516 18 0 0.0 0.0 0.00 0.10 0.00 75 1022.4
20260906143038 18 0 0.0 0.0 0.00 0.10 0.00 76 1022.4
20260906142520 18 0 0.0 0.0 0.00 0.10 0.00 76 1022.5
20260906142020 17 0 0.0 0.0 0.00 0.10 0.00 75 1022.5
20260906141540 17 0 0.0 0.0 0.00 0.10 0.00 75 1022.5
20260906141020 17 0 0.0 0.0 0.00 0.10 0.00 75 1022.6
20260906140521 17 0 0.0 0.0 0.00 0.10 0.00 73 1022.6
20260906140035 17 0 0.0 0.0 0.00 0.10 0.00 73 1022.5
20260906135524 17 0 0.0 0.0 0.00 0.10 0.00 72 1022.3
20260906135016 17 0 0.0 0.0 0.00 0.10 0.00 72 1022.2
20260906134533 16 0 0.0 0.0 0.00 0.10 0.00 72 1022.1
20260906134021 16 0 0.0 0.0 0.00 0.10 0.00 72 1022.0
20260906133518 16 0 0.0 0.0 0.00 0.10 0.00 73 1022.1
20260906133036 16 0 0.0 0.0 0.00 0.10 0.00 73 1021.9
20260906132522 16 0 0.0 0.0 0.00 0.10 0.00 73 1021.8
20260906132019 16 0 0.0 0.0 0.00 0.10 0.00 73 1021.9
20260906131543 15 0 0.0 0.0 0.00 0.10 0.00 73 1021.8
20260906131020 15 0 0.0 0.0 0.00 0.10 0.00 73 1021.8
20260906130520 15 0 0.0 0.0 0.00 0.10 0.00 73 1021.9
20260906130038 15 0 0.0 0.0 0.00 0.10 0.00 73 1021.9
20260906125518 15 0 0.0 0.0 0.00 0.10 0.00 74 1021.9
20260906125017 15 0 0.0 0.0 0.00 0.10 0.00 73 1021.9
20260906124600 15 0 0.0 0.0 0.00 0.10 0.00 73 1021.9
20260906124420 15 0 0.0 0.0 0.00 0.10 0.00 73 1022.0
20260906031020 23 0 0.0 0.0 0.00 0.00 0.00 37 1020.9
20260906030519 24 0 0.0 0.0 0.00 0.00 0.00 36 1020.5
20260906030041 24 0 0.0 0.0 0.00 0.00 0.00 35 1020.4
20260906025519 24 0 0.0 0.0 0.00 0.00 0.00 36 1020.3
20260906025025 24 0 0.0 0.0 0.00 0.00 0.00 35 1020.2
20260906024539 24 0 0.0 0.0 0.00 0.00 0.00 35 1020.2
20260906024020 23 0 0.0 0.0 0.00 0.00 0.00 35 1020.2
20260906023520 23 0 0.0 1.6 0.00 0.00 0.00 37 1020.1
20260906023038 24 0 0.0 1.6 0.00 0.00 0.00 37 1020.1
20260906022521 24 0 0.0 0.0 0.00 0.00 0.00 35 1019.8
20260906022023 25 0 0.0 0.0 0.00 0.00 0.00 35 1019.7
20260906021536 25 0 0.0 0.0 0.00 0.00 0.00 34 1019.7
20260906021018 25 0 0.0 0.0 0.00 0.00 0.00 34 1019.6
20260906020518 25 0 0.0 0.0 0.00 0.00 0.00 34 1019.6
20260906020045 25 0 0.0 0.0 0.00 0.00 0.00 33 1019.6
20260906015518 25 0 0.0 0.0 0.00 0.00 0.00 33 1019.6
20260906015020 25 0 0.0 0.0 0.00 0.00 0.00 33 1019.6
20260906014551 26 0 0.0 0.0 0.00 0.00 0.00 33 1019.5
20260906014020 26 0 0.0 0.0 0.00 0.00 0.00 33 1019.5
20260906013519 26 0 0.0 0.0 0.00 0.00 0.00 33 1019.3
20260906013043 26 0 0.0 0.0 0.00 0.00 0.00 34 1019.3
20260906012520 27 0 0.0 0.0 0.00 0.00 0.00 33 1019.3
20260906012017 27 0 0.0 0.0 0.00 0.00 0.00 33 1019.3
20260906011542 27 0 0.0 0.0 0.00 0.00 0.00 32 1019.4
20260906011018 27 0 0.0 0.0 0.00 0.00 0.00 31 1019.4
20260906010520 28 0 0.0 0.0 0.00 0.00 0.00 31 1019.3
20260906010039 28 0 0.0 0.0 0.00 0.00 0.00 29 1019.3
20260906005520 28 0 0.0 0.0 0.00 0.00 0.00 29 1019.4
20260906005023 28 0 0.0 0.0 0.00 0.00 0.00 29 1019.4
20260906004541 29 0 0.0 0.0 0.00 0.00 0.00 29 1019.4
20260906004024 29 0 0.0 0.0 0.00 0.00 0.00 28 1019.4
20260906003520 30 0 0.0 0.0 0.00 0.00 0.00 27 1019.4
20260906003049 30 0 0.0 0.0 0.00 0.00 0.00 27 1019.4
20260906002520 30 0 0.0 0.0 0.00 0.00 0.00 27 1019.4
20260906002018 30 0 0.0 0.0 0.00 0.00 0.00 26 1019.3
20260906001536 31 0 0.0 0.0 0.00 0.00 0.00 25 1019.3
20260906001020 31 0 0.0 0.0 0.00 0.00 0.00 26 1019.2
20260906000523 31 0 0.0 0.0 0.00 0.00 0.00 25 1019.3
20260906000037 31 0 0.0 0.0 0.00 0.00 0.00 25 1019.3
20260905235520 32 0 0.0 0.0 0.00 0.00 0.00 24 1019.3
20260905235020 32 0 0.0 0.0 0.00 0.00 0.00 22 1019.2
20260905234539 32 0 0.0 0.0 0.00 0.00 0.00 25 1019.2
20260905234019 32 0 0.0 0.0 0.00 0.00 0.00 22 1019.3
20260905233518 32 0 0.0 0.0 0.00 0.00 0.00 23 1019.3
20260905233040 31 0 0.0 0.0 0.00 0.00 0.00 21 1019.2
20260905232521 31 0 0.0 0.0 0.00 0.00 0.00 21 1019.3
20260905232022 31 0 0.0 0.0 0.00 0.00 0.00 22 1019.2
20260905231539 31 0 0.0 0.0 0.00 0.00 0.00 23 1019.2
20260905231020 31 0 0.0 1.6 0.00 0.00 0.00 23 1019.2
20260905230520 31 0 0.0 1.6 0.00 0.00 0.00 23 1019.2
20260905230040 31 0 0.0 0.0 0.00 0.00 0.00 23 1019.2
20260905225517 30 0 0.0 0.0 0.00 0.00 0.00 26 1019.1
20260905225016 30 0 0.0 0.0 0.00 0.00 0.00 25 1019.1
20260905224537 30 0 0.0 0.0 0.00 0.00 0.00 26 1019.2
20260905224017 30 0 0.0 0.0 0.00 0.00 0.00 26 1019.3
20260905223519 30 0 0.0 0.0 0.00 0.00 0.00 25 1019.3
20260905223038 30 0 0.0 0.0 0.00 0.00 0.00 24 1019.3
20260905222523 30 0 0.0 3.2 0.00 0.00 0.00 24 1019.3
20260905222020 30 0 0.0 3.2 0.00 0.00 0.00 24 1019.3
20260905221540 30 0 0.0 3.2 0.00 0.00 0.00 24 1019.3
20260905221018 30 0 0.0 0.0 0.00 0.00 0.00 26 1019.3
20260905220519 30 0 0.0 0.0 0.00 0.00 0.00 22 1019.3
20260905220044 31 0 0.0 0.0 0.00 0.00 0.00 23 1019.2
20260905215519 31 0 0.0 11.3 0.00 0.00 0.00 22 1019.5
20260905215023 31 0 0.0 11.3 0.00 0.00 0.00 22 1019.6